GW1476 Weather Reports


Display with metric or nautical units.
time (UTC)temp
F
wind
direction
speed
MPH
gust
MPH
rain 1hr
in
rain 24hr
in
rain mn
in
humidity
%
barometer
mb
20260904121242 74 225 0.0 0.0 0.00 0.00 0.00 99 1019.6
20260904120825 74 225 0.0 0.0 0.00 0.00 0.00 99 1019.6
20260904120409 73 203 0.0 0.0 0.00 0.00 0.00 99 1019.6
20260904115952 73 225 0.0 0.0 0.00 0.00 0.00 99 1019.6
20260904115539 72 225 0.0 0.0 0.00 0.00 0.00 99 1019.6
20260904115125 72 248 0.0 0.0 0.00 0.00 0.00 99 1019.6
20260904114709 72 248 0.0 0.0 0.00 0.00 0.00 99 1019.3
20260904114253 72 203 0.0 0.0 0.00 0.00 0.00 99 1019.3
20260904113823 72 293 0.0 0.0 0.00 0.00 0.00 99 1019.3
20260904113408 72 225 0.0 0.0 0.00 0.00 0.00 99 1019.3
20260904112952 72 315 0.0 0.0 0.00 0.00 0.00 99 1019.3
20260904112536 72 180 0.0 0.0 0.00 0.00 0.00 99 1019.3
20260904112122 72 225 0.0 0.0 0.00 0.00 0.00 99 1019.3
20260904111705 72 225 0.0 0.0 0.00 0.00 0.00 99 1019.3
20260904111249 72 248 0.0 0.0 0.00 0.00 0.00 99 1019.3
20260904110834 72 315 0.0 0.0 0.00 0.00 0.00 99 1019.3
20260904110417 72 225 0.0 0.0 0.00 0.00 0.00 99 1019.3
20260904105516 72 203 0.0 0.0 0.00 0.00 0.00 99 1019.3
20260904105059 72 315 0.0 0.0 0.00 0.00 0.00 99 1019.3
20260904104628 72 270 0.0 0.0 0.00 0.00 0.00 99 1018.9
20260904104214 72 270 0.0 0.0 0.00 0.00 0.00 99 1018.9
20260904103312 72 225 0.0 0.0 0.00 0.00 0.00 99 1018.9
20260904102857 72 270 0.0 0.0 0.00 0.00 0.00 99 1018.9
20260904102426 72 270 0.0 0.0 0.00 0.00 0.00 99 1018.9
20260904102010 72 270 0.0 0.0 0.00 0.00 0.00 99 1018.9
20260904101555 72 225 0.0 0.0 0.00 0.00 0.00 99 1018.9
20260904101140 72 225 0.0 0.0 0.00 0.00 0.00 99 1018.9
20260904100725 72 203 0.0 0.0 0.00 0.00 0.00 99 1018.9
20260904100309 72 203 0.0 0.0 0.00 0.00 0.00 99 1018.9
20260904095823 72 225 0.0 0.0 0.00 0.00 0.00 99 1018.9
20260904095408 72 203 0.0 0.0 0.00 0.00 0.00 99 1018.9
20260904094951 72 225 0.0 0.0 0.00 0.00 0.00 99 1018.9
20260904094538 72 225 0.0 0.0 0.00 0.00 0.00 99 1018.9
20260904093634 72 225 0.0 0.0 0.00 0.00 0.00 99 1018.9
20260904093200 72 225 0.0 0.0 0.00 0.00 0.00 99 1018.9
20260904092728 72 203 0.0 0.0 0.00 0.00 0.00 99 1018.9
20260904091813 72 225 0.0 0.0 0.00 0.00 0.00 99 1018.6
20260904091327 72 225 0.0 0.0 0.00 0.00 0.00 99 1018.6
20260904090912 72 225 0.0 0.0 0.00 0.00 0.00 99 1018.6
20260904090457 73 225 0.0 0.0 0.00 0.00 0.00 99 1018.6
20260904090042 72 203 0.0 0.0 0.00 0.00 0.00 99 1018.6
20260904085626 72 203 0.0 0.0 0.00 0.00 0.00 99 1018.6
20260904085212 72 315 0.0 0.0 0.00 0.00 0.00 99 1018.6
20260904084325 72 225 0.0 0.0 0.00 0.00 0.00 99 1018.2
20260904083440 72 203 0.0 0.0 0.00 0.00 0.00 99 1018.6
20260904083025 72 270 0.0 0.0 0.00 0.00 0.00 99 1018.2
20260904082139 72 270 0.0 0.0 0.00 0.00 0.00 99 1018.2
20260904081254 72 248 0.0 0.0 0.00 0.00 0.00 99 1018.2
20260904080410 73 113 0.0 0.0 0.00 0.00 0.00 99 1018.2
20260904075938 72 225 0.0 0.0 0.00 0.00 0.00 99 1018.2
20260904075522 72 248 0.0 0.0 0.00 0.00 0.00 99 1018.2
20260904075106 72 248 0.0 0.0 0.00 0.00 0.00 99 1018.2
20260904074650 72 270 0.0 0.0 0.00 0.00 0.00 99 1018.2
20260904072900 73 270 0.0 0.0 0.00 0.00 0.00 99 1018.2
20260904072446 73 225 0.0 0.0 0.00 0.00 0.00 99 1018.2
20260904072032 73 113 0.0 0.0 0.00 0.00 0.00 99 1018.2
20260904071616 73 225 0.0 0.0 0.00 0.00 0.00 99 1018.2
20260904071158 73 225 0.0 0.0 0.00 0.00 0.00 99 1018.2
20260904070744 73 225 0.0 0.0 0.00 0.00 0.00 99 1018.2
20260904070327 73 225 0.0 0.0 0.00 0.00 0.00 99 1018.2
20260904065912 73 225 0.0 0.0 0.00 0.00 0.00 99 1018.6
20260904065441 73 203 0.0 0.0 0.00 0.00 0.00 99 1018.6
20260904065024 73 270 0.0 0.0 0.00 0.00 0.00 99 1018.6
20260904064607 73 203 0.0 0.0 0.00 0.00 0.00 99 1018.6
20260904064149 73 225 0.0 0.0 0.00 0.00 0.00 99 1018.2
20260904063733 73 225 0.0 0.0 0.00 0.00 0.00 99 1018.6
20260904062830 73 225 0.0 0.0 0.00 0.00 0.00 99 1018.6
20260904062415 73 225 0.0 0.0 0.00 0.00 0.00 99 1018.6
20260904061959 73 203 0.0 0.0 0.00 0.00 0.00 99 1018.6
20260904061544 73 225 0.0 0.0 0.00 0.00 0.00 99 1018.6
20260904061129 74 248 0.0 0.0 0.00 0.00 0.00 99 1018.6
20260904060657 74 203 0.0 0.0 0.00 0.00 0.00 99 1018.9
20260904055811 74 225 0.0 0.0 0.00 0.00 0.00 99 1018.9
20260904055356 74 203 0.0 0.0 0.00 0.00 0.00 99 1018.9
20260904054925 74 225 0.0 0.0 0.00 0.00 0.00 99 1018.9
20260904054509 74 180 0.0 0.0 0.00 0.00 0.00 99 1018.9
20260904053607 74 203 0.0 0.0 0.00 0.00 0.00 99 1018.9
20260904052721 74 203 0.0 0.0 0.00 0.00 0.00 99 1018.9
20260904052139 74 45 0.0 0.0 0.00 0.00 0.00 99 1018.9
20260904051541 74 248 0.0 0.0 0.00 0.00 0.00 99 1018.9
20260904050337 74 225 0.0 0.0 0.00 0.00 0.00 99 1018.9
20260904045739 74 248 0.0 0.0 0.00 0.00 0.00 99 1019.3
20260904045117 74 248 0.0 0.0 0.00 0.00 0.00 99 1019.3
20260904044508 74 203 0.0 0.0 0.00 0.00 0.00 99 1019.3
20260904043947 74 225 0.0 0.0 0.00 0.00 0.00 99 1018.9
20260904043315 75 203 0.0 0.0 0.00 0.00 0.00 99 1019.3
20260904042106 75 203 0.0 0.0 0.00 0.00 0.00 99 1018.9
20260904041546 75 225 0.0 0.0 0.00 0.00 0.00 99 1018.9
20260904040937 75 203 0.0 0.0 0.00 0.00 0.00 99 1019.3
20260904040322 75 338 0.0 0.0 0.00 0.00 0.00 99 1018.9
20260904035721 75 225 0.0 0.0 0.00 0.00 0.00 99 1018.9
20260904035147 75 225 0.0 0.0 0.00 0.00 0.00 99 1019.3
20260904034512 75 225 0.0 0.0 0.00 0.00 0.00 99 1019.3
20260904033348 76 248 0.0 1.0 0.00 0.00 0.00 99 1019.3
20260904032711 76 203 0.0 0.0 0.00 0.00 0.00 99 1019.3
20260904031525 76 225 0.0 0.0 0.00 0.00 0.00 99 1019.3
20260904030349 76 225 0.0 0.0 0.00 0.00 0.00 99 1019.3
20260904025749 76 225 0.0 0.0 0.00 0.00 0.00 99 1019.3
20260904025117 76 225 0.0 0.0 0.00 0.00 0.00 99 1019.3
20260904024522 76 180 0.0 0.0 0.00 0.00 0.00 99 1019.3
20260904023913 77 270 0.0 0.0 0.00 0.00 0.00 99 1019.3
20260904023327 77 203 0.0 0.0 0.00 0.00 0.00 99 1019.3
20260904022749 77 225 0.0 0.0 0.00 0.00 0.00 99 1019.3
20260904022113 77 203 0.0 0.0 0.00 0.00 0.00 99 1019.3
20260904021516 77 203 0.0 0.0 0.00 0.00 0.00 99 1019.3
20260904020922 78 203 0.0 2.0 0.00 0.00 0.00 99 1019.3
20260904020329 78 203 0.0 0.0 0.00 0.00 0.00 99 1018.9
20260904015747 78 225 0.0 0.0 0.00 0.00 0.00 99 1018.9
20260904015110 78 203 0.0 0.0 0.00 0.00 0.00 99 1018.9
20260904014550 78 248 1.0 1.0 0.00 0.00 0.00 99 1018.9
20260904013945 78 203 0.0 2.0 0.00 0.00 0.00 99 1018.9
20260904013321 78 203 2.0 2.0 0.00 0.00 0.00 99 1018.9
20260904012716 79 180 0.0 0.0 0.00 0.00 0.00 99 1018.9
20260904012125 79 225 0.0 0.0 0.00 0.00 0.00 99 1018.9
20260904011515 79 225 0.0 0.0 0.00 0.00 0.00 99 1018.9
20260904010320 80 225 2.0 2.0 0.00 0.00 0.00 99 1018.9
20260904005735 80 225 0.0 0.0 0.00 0.00 0.00 99 1018.6
20260904005115 80 225 0.0 0.0 0.00 0.00 0.00 99 1018.6
20260904004546 81 225 0.0 0.0 0.00 0.00 0.00 99 1018.6
20260904003911 81 248 1.0 2.0 0.00 0.00 0.00 99 1018.6
20260904003324 81 248 0.0 2.0 0.00 0.00 0.00 99 1018.2
20260904002733 81 248 1.0 2.0 0.00 0.00 0.00 98 1018.2
20260904002120 82 225 2.0 2.0 0.00 0.00 0.00 97 1018.2
20260904001507 82 203 2.0 2.0 0.00 0.00 0.00 98 1018.2
20260904000920 82 203 2.0 2.0 0.00 0.00 0.00 96 1017.9
20260904000311 83 203 2.0 3.0 0.00 0.00 0.00 94 1017.9
20260903235729 84 203 2.0 2.0 0.00 0.00 0.00 91 1017.9
20260903235134 85 203 2.0 2.0 0.00 0.00 0.00 90 1017.9
20260903234549 85 203 2.0 2.0 0.00 0.00 0.00 90 1017.9
20260903233921 85 225 3.0 4.0 0.00 0.00 0.00 90 1017.9
20260903233348 86 203 4.0 4.0 0.00 0.00 0.00 88 1017.9
20260903232711 87 203 3.0 3.0 0.00 0.00 0.00 85 1017.9
20260903232111 88 180 2.0 2.0 0.00 0.00 0.00 84 1017.6
20260903231545 88 203 2.0 3.0 0.00 0.00 0.00 83 1017.6
20260903230912 90 203 3.0 4.0 0.00 0.00 0.00 80 1017.6
20260903230333 92 180 2.0 3.0 0.00 0.00 0.00 75 1017.6
20260903225727 94 203 2.0 3.0 0.00 0.00 0.00 72 1017.6
20260903225135 93 180 3.0 3.0 0.00 0.00 0.00 74 1017.2
20260903224512 94 180 3.0 3.0 0.00 0.00 0.00 73 1017.2
20260903223934 94 225 2.0 3.0 0.00 0.00 0.00 71 1016.9
20260903223349 92 180 3.0 4.0 0.00 0.00 0.00 73 1016.9
20260903222714 94 203 3.0 3.0 0.00 0.00 0.00 71 1016.9
20260903221520 96 180 3.0 3.0 0.00 0.00 0.00 66 1016.9
20260903220942 96 203 3.0 3.0 0.00 0.00 0.00 66 1016.9
20260903220317 97 225 2.0 3.0 0.00 0.00 0.00 66 1016.9
20260903215722 98 225 2.0 3.0 0.00 0.00 0.00 62 1016.9
20260903215142 97 158 2.0 2.0 0.00 0.00 0.00 62 1017.2
20260903214506 96 225 2.0 2.0 0.00 0.00 0.00 63 1016.9
20260903213336 98 203 2.0 3.0 0.00 0.00 0.00 61 1017.2
20260903212722 99 293 0.0 4.0 0.00 0.00 0.00 59 1017.2
20260903212112 99 203 2.0 2.0 0.00 0.00 0.00 60 1017.2
20260903211534 99 225 2.0 2.0 0.00 0.00 0.00 59 1017.6
20260903210324 99 180 3.0 4.0 0.00 0.00 0.00 60 1017.6
20260903205707 98 135 2.0 5.0 0.00 0.00 0.00 59 1017.9
20260903205146 99 225 3.0 5.0 0.00 0.00 0.00 60 1017.9
20260903204536 98 248 2.0 5.0 0.00 0.00 0.00 60 1017.9
20260903203919 99 180 2.0 4.0 0.00 0.00 0.00 59 1017.9
20260903203310 100 203 2.0 4.0 0.00 0.00 0.00 59 1017.9
20260903202114 98 203 3.0 3.0 0.00 0.00 0.00 58 1017.9
20260903201522 100 203 4.0 4.0 0.00 0.00 0.00 58 1018.2
20260903200908 100 270 3.0 3.0 0.00 0.00 0.00 58 1018.2
20260903200344 100 203 4.0 4.0 0.00 0.00 0.00 58 1018.2
20260903195707 101 293 2.0 5.0 0.00 0.00 0.00 56 1018.2
20260903195111 101 270 2.0 3.0 0.00 0.00 0.00 57 1018.2
20260903194544 100 248 4.0 4.0 0.00 0.00 0.00 57 1018.2
20260903193947 100 225 1.0 6.0 0.00 0.00 0.00 57 1018.6
20260903192714 100 338 3.0 3.0 0.00 0.00 0.00 58 1018.6
20260903192139 99 180 4.0 4.0 0.00 0.00 0.00 58 1018.9
20260903191546 99 113 2.0 2.0 0.00 0.00 0.00 58 1018.9
20260903190945 99 0 2.0 4.0 0.00 0.00 0.00 59 1018.9
20260903190337 100 23 2.0 4.0 0.00 0.00 0.00 58 1019.3
20260903185112 99 248 3.0 3.0 0.00 0.00 0.00 58 1018.9
20260903184523 100 225 2.0 3.0 0.00 0.00 0.00 57 1019.3
20260903183933 100 45 2.0 3.0 0.00 0.00 0.00 57 1019.3
20260903183306 100 180 2.0 4.0 0.00 0.00 0.00 56 1019.3
20260903182707 103 270 1.0 4.0 0.00 0.00 0.00 54 1019.3
20260903182137 102 45 4.0 4.0 0.00 0.00 0.00 54 1019.3
20260903181538 101 23 3.0 5.0 0.00 0.00 0.00 54 1019.3
20260903180926 99 0 3.0 5.0 0.00 0.00 0.00 57 1019.3
20260903180346 99 45 3.0 6.0 0.00 0.00 0.00 58 1019.3
20260903175707 98 315 1.0 4.0 0.00 0.00 0.00 57 1019.6
20260903175119 98 45 0.0 2.0 0.00 0.00 0.00 58 1019.6
20260903174541 100 23 2.0 2.0 0.00 0.00 0.00 57 1019.6
20260903173943 100 180 1.0 3.0 0.00 0.00 0.00 58 1019.6
20260903173347 99 315 2.0 4.0 0.00 0.00 0.00 59 1019.6
20260903172111 98 203 0.0 4.0 0.00 0.00 0.00 60 1019.6
20260903171521 98 225 2.0 2.0 0.00 0.00 0.00 63 1019.9
20260903170347 98 45 5.0 6.0 0.00 0.00 0.00 62 1019.9
20260903165747 98 225 0.0 1.0 0.00 0.00 0.00 64 1019.9
20260903165109 98 203 2.0 2.0 0.00 0.00 0.00 63 1019.9
20260903164514 98 203 2.0 2.0 0.00 0.00 0.00 66 1019.9
20260903163922 96 203 3.0 6.0 0.00 0.00 0.00 67 1020.3
20260903163314 97 180 3.0 4.0 0.00 0.00 0.00 68 1020.3
20260903162743 96 158 1.0 5.0 0.00 0.00 0.00 69 1020.3
20260903162108 96 180 1.0 2.0 0.00 0.00 0.00 70 1020.3
20260903160909 95 248 1.0 5.0 0.00 0.00 0.00 72 1020.6
20260903160307 95 203 2.0 3.0 0.00 0.00 0.00 73 1020.6
20260903155750 95 203 4.0 4.0 0.00 0.00 0.00 73 1020.6
20260903155146 94 203 3.0 4.0 0.00 0.00 0.00 73 1020.6
20260903154550 94 203 2.0 3.0 0.00 0.00 0.00 74 1020.6
20260903153930 94 158 4.0 4.0 0.00 0.00 0.00 73 1020.6
20260903153332 93 203 2.0 3.0 0.00 0.00 0.00 74 1020.6
20260903152749 94 225 2.0 2.0 0.00 0.00 0.00 75 1020.6
20260903152117 93 135 2.0 3.0 0.00 0.00 0.00 77 1020.6
20260903151534 93 225 1.0 3.0 0.00 0.00 0.00 77 1020.6
20260903150909 91 203 2.0 2.0 0.00 0.00 0.00 78 1020.6
20260903150336 92 0 2.0 2.0 0.00 0.00 0.00 76 1020.6
20260903145721 90 203 0.0 2.0 0.00 0.00 0.00 80 1020.6
20260903145137 90 203 0.0 2.0 0.00 0.00 0.00 80 1020.6
20260903144524 90 180 3.0 3.0 0.00 0.00 0.00 80 1020.6
20260903143911 89 23 2.0 3.0 0.00 0.00 0.00 80 1020.6
20260903143349 89 180 2.0 2.0 0.00 0.00 0.00 81 1020.6
20260903142717 88 203 0.0 1.0 0.00 0.00 0.00 83 1020.6
20260903141520 86 158 2.0 2.0 0.00 0.00 0.00 85 1020.6
20260903140339 85 68 0.0 2.0 0.00 0.00 0.00 88 1020.9
20260903135710 85 270 0.0 1.0 0.00 0.00 0.00 86 1020.9
20260903135149 84 225 1.0 2.0 0.00 0.00 0.00 89 1020.9
20260903134538 84 203 1.0 1.0 0.00 0.00 0.00 89 1020.9
20260903133922 82 225 1.0 1.0 0.00 0.00 0.00 92 1020.9
20260903132118 80 225 0.0 1.0 0.00 0.00 0.00 95 1020.9
20260903131542 80 180 0.0 0.0 0.00 0.00 0.00 95 1021.3
20260903130912 79 203 0.0 0.0 0.00 0.00 0.00 97 1021.3
20260903130309 78 180 0.0 0.0 0.00 0.00 0.00 99 1021.3
20260903125748 78 203 0.0 0.0 0.00 0.00 0.00 99 1021.6
20260903125122 76 45 0.0 0.0 0.00 0.00 0.00 99 1021.6
20260903124521 76 68 0.0 0.0 0.00 0.00 0.00 99 1021.6
20260903122715 75 158 0.0 0.0 0.00 0.00 0.00 99 1021.3
20260903122150 75 293 0.0 0.0 0.00 0.00 0.00 99 1021.3